Location: A�t �Alizem
(31.2076°N, 8.7872°W)
Time: 04:42:07
(UTC+00:00)

Meteor 1-20 Rocket - Pass Details

Date: 27 November 2020
Orbit: 819 x 892 km, 81.2° (Epoch: 25 January)

Event Time Altitude Azimuth Distance (km) Brightness Sun altitude
Rises 18:23:17 0° 356° (N) 3,507 7.3 -10.9°
Reaches altitude 10° 18:25:47 10° 360° (N) 2,563 6.5 -11.4°
Maximum altitude 18:31:35 64° 81° (E) 981 4.3 -12.6°
Drops below altitude 10° 18:37:17 10° 162° (SSE) 2,525 6.7 -13.8°
Sets 18:39:44 0° 166° (SSE) 3,451 7.4 -14.3°
